CZ-2D DEB (43095 NORAD) Tracking and Keplerian Element Data

This shows tracking and keplerian element data for the satellite.

Feedback or suggestion? Click here.




ElementValue
Catalog43095
NameCZ-2D DEB
Epoch Orbit389
Epoch Day21.18077508
Epoch Year2018
RAAN99.1987
Inclination97.456
Eccentricity0.0011247
Argument of Perigee168.3131
Mean Anonmoly191.8379
Mean Motion15.23792732
Decay Rate1.829E-05
L11 43095U 17084B 18021.18077508 .00001829 00000-0 78876-4 0 9999
L22 43095 97.4560 99.1987 0011247 168.3131 191.8379 15.23792732 3894

Live tracking and technical data element details for CZ-2D DEB (NORAD 43095). CZ-2D DEB can be tracked NOW for your location showing map with azimuth and elevation plus other details from your city location.

Track the satellite on the map from your city or location and see movement details for azimuth, elevation, latitude, longitude, range, height, and movement on the map or in text.







IsCatalogInMostPopularTable: catalog: 43095, numindb: 126
Update: records affected: 1



GetName: 43095 CZ-2D DEB

Hit Count: updated at: Mon, 19 Nov 2018 13:26:56 GMT